FW5487 Weather Reports


Display with metric or nautical units.
time (UTC)temp
F
wind
direction
speed
MPH
gust
MPH
rain 1hr
in
rain 24hr
in
rain mn
in
humidity
%
barometer
mb
20260502203204 65 357 3.0 9.0 0.00 0.00 0.00 35 1000.0
20260502202704 65 345 6.0 9.0 0.00 0.00 0.00 34 1000.0
20260502201203 64 41 5.0 12.0 0.00 0.00 0.00 35 1000.0
20260502200703 64 6 5.0 9.0 0.00 0.00 0.00 35 1000.0
20260502200204 65 322 3.0 7.0 0.00 0.00 0.00 34 1000.0
20260502195703 65 322 2.0 6.0 0.00 0.00 0.00 36 1000.0
20260502194704 64 22 5.0 12.0 0.00 0.00 0.00 36 1000.0
20260502194203 65 23 2.0 6.0 0.00 0.00 0.00 35 1000.0
20260502193703 64 35 6.0 14.0 0.00 0.00 0.00 36 1000.0
20260502193204 64 21 7.0 13.0 0.00 0.00 0.00 36 1000.0
20260502192704 64 2 5.0 13.0 0.00 0.00 0.00 36 1000.0
20260502192203 64 42 4.0 9.0 0.00 0.00 0.00 36 1000.0
20260502191704 63 332 6.0 12.0 0.00 0.00 0.00 38 1000.0
20260502191204 63 8 6.0 13.0 0.00 0.00 0.00 36 1000.0
20260502190703 63 329 3.0 9.0 0.00 0.00 0.00 37 1000.0
20260502190204 63 345 7.0 12.0 0.00 0.00 0.00 38 1000.0
20260502185704 62 1 5.0 10.0 0.00 0.00 0.00 40 1000.0
20260502185204 62 251 4.0 8.0 0.00 0.00 0.00 39 1000.0
20260502184703 62 312 7.0 16.0 0.00 0.00 0.00 39 1000.0
20260502184203 63 328 7.0 12.0 0.00 0.00 0.00 39 1000.0
20260502183704 63 21 1.0 8.0 0.00 0.00 0.00 39 1000.0
20260502183204 63 312 2.0 8.0 0.00 0.00 0.00 37 1000.0
20260502182204 62 358 7.0 12.0 0.00 0.00 0.00 38 1000.0
20260502181703 62 10 4.0 9.0 0.00 0.00 0.00 39 1000.0
20260502181204 62 299 4.0 9.0 0.00 0.00 0.00 41 1000.0
20260502180704 62 346 6.0 13.0 0.00 0.00 0.00 41 1000.0
20260502170204 61 46 5.0 9.0 0.00 0.00 0.00 42 1000.0
20260502164204 61 319 4.0 9.0 0.00 0.00 0.00 43 1000.0
20260502163704 60 30 2.0 7.0 0.00 0.00 0.00 44 1000.0
20260502163203 59 317 6.0 10.0 0.00 0.00 0.00 43 1000.0
20260502162704 60 356 5.0 9.0 0.00 0.00 0.00 43 1000.0
20260502162204 59 355 4.0 9.0 0.00 0.00 0.00 45 1000.0
20260502161703 58 332 6.0 13.0 0.00 0.00 0.00 46 1000.0
20260502161204 58 338 5.0 9.0 0.00 0.00 0.00 48 1000.0
20260502160204 59 43 6.0 9.0 0.00 0.00 0.00 46 1000.0
20260502151203 58 352 5.0 10.0 0.00 0.00 0.00 57 1000.0
20260502150704 58 337 6.0 10.0 0.00 0.00 0.00 56 1000.0
20260502150204 58 2 5.0 9.0 0.00 0.00 0.00 58 1000.0
20260502130704 50 333 4.0 7.0 0.00 0.00 0.00 81 1000.0
20260502130204 50 346 2.0 6.0 0.00 0.00 0.00 83 1000.0
20260502123704 49 341 2.0 5.0 0.00 0.00 0.00 84 1000.0
20260502123204 49 0 1.0 5.0 0.00 0.00 0.00 84 1000.0
20260502122703 49 343 2.0 5.0 0.00 0.00 0.00 84 1000.0
20260502122204 49 355 2.0 5.0 0.00 0.00 0.00 85 1000.0
20260502121704 48 343 2.0 5.0 0.00 0.00 0.00 85 1000.0
20260502121204 48 345 3.0 8.0 0.00 0.00 0.00 85 1000.0
20260502120703 48 352 1.0 3.0 0.00 0.00 0.00 87 1000.0
20260502120203 48 326 2.0 3.0 0.00 0.00 0.00 86 1000.0
20260502115704 48 341 3.0 5.0 0.00 0.00 0.00 86 1000.0
20260502115204 48 356 2.0 6.0 0.00 0.00 0.00 87 1000.0
20260502114204 47 338 2.0 5.0 0.00 0.00 0.00 87 1000.0
20260502113703 47 333 2.0 5.0 0.00 0.00 0.00 87 1000.0
20260502112704 47 337 2.0 3.0 0.00 0.00 0.00 87 1000.0
20260502112203 47 338 2.0 5.0 0.00 0.00 0.00 88 1000.0
20260502111704 47 338 2.0 6.0 0.00 0.00 0.00 88 1000.0
20260502111203 47 333 2.0 5.0 0.00 0.00 0.00 88 1000.0
20260502110704 47 339 2.0 6.0 0.00 0.00 0.00 88 1000.0
20260502110204 47 338 3.0 5.0 0.00 0.00 0.00 88 1000.0
20260502105704 47 343 2.0 6.0 0.00 0.00 0.00 88 1000.0
20260502105203 47 349 3.0 6.0 0.00 0.00 0.00 88 1000.0
20260502104704 47 330 2.0 5.0 0.00 0.00 0.00 89 1000.0
20260502104204 47 321 2.0 3.0 0.00 0.00 0.00 88 1000.0
20260502103703 47 314 2.0 3.0 0.00 0.00 0.00 87 1000.0
20260502103204 48 326 2.0 3.0 0.00 0.00 0.00 87 1000.0
20260502102704 48 322 2.0 5.0 0.00 0.00 0.00 86 1000.0
20260502102203 48 317 2.0 3.0 0.00 0.00 0.00 86 1000.0
20260502101703 48 328 1.0 3.0 0.00 0.00 0.00 86 1000.0
20260502101204 48 324 3.0 5.0 0.00 0.00 0.00 86 1000.0
20260502100703 49 327 2.0 3.0 0.00 0.00 0.00 85 1000.0
20260502100203 49 327 2.0 5.0 0.00 0.00 0.00 85 1000.0
20260502090704 50 328 2.0 3.0 0.00 0.00 0.00 82 1000.0
20260502090204 50 334 1.0 3.0 0.00 0.00 0.00 81 1000.0
20260502071204 52 335 2.0 3.0 0.00 0.00 0.00 73 1000.0
20260502070704 53 347 2.0 3.0 0.00 0.00 0.00 72 1000.0
20260502065704 53 347 1.0 3.0 0.00 0.00 0.00 71 1000.0
20260502065204 53 348 2.0 3.0 0.00 0.00 0.00 71 1000.0
20260502064703 53 344 1.0 3.0 0.00 0.00 0.00 70 1000.0
20260502063703 53 342 2.0 3.0 0.00 0.00 0.00 69 1000.0
20260502063204 53 337 3.0 6.0 0.00 0.00 0.00 68 1000.0
20260502062704 53 349 3.0 6.0 0.00 0.00 0.00 67 1000.0
20260502062203 54 339 3.0 6.0 0.00 0.00 0.00 67 1000.0
20260502060704 53 331 3.0 6.0 0.00 0.00 0.00 67 1000.0
20260502060204 53 333 2.0 3.0 0.00 0.00 0.00 70 1000.0
20260502055704 53 343 2.0 5.0 0.00 0.00 0.00 71 1000.0
20260502055203 53 324 3.0 5.0 0.00 0.00 0.00 73 1000.0
20260502054703 53 333 3.0 5.0 0.00 0.00 0.00 76 1000.0
20260502054204 54 309 2.0 3.0 0.00 0.00 0.00 80 1000.0
20260502053704 54 326 2.0 3.0 0.00 0.00 0.00 76 1000.0
20260502053203 54 300 2.0 5.0 0.00 0.00 0.00 74 1000.0
20260502052703 54 284 2.0 3.0 0.00 0.00 0.00 74 1000.0
20260502051704 55 279 1.0 3.0 0.00 0.00 0.00 73 1000.0
20260502051203 55 294 1.0 3.0 0.00 0.00 0.00 72 1000.0
20260502050703 55 287 3.0 5.0 0.00 0.00 0.00 72 1000.0
20260502050203 55 279 2.0 3.0 0.00 0.00 0.00 73 1000.0
20260502045204 55 261 2.0 3.0 0.00 0.00 0.00 73 1000.0
20260502044703 55 287 2.0 3.0 0.00 0.00 0.00 75 1000.0
20260502044204 55 277 2.0 3.0 0.00 0.00 0.00 76 1000.0
20260502043203 55 289 2.0 3.0 0.00 0.00 0.00 76 1000.0
20260502042704 55 274 1.0 2.0 0.00 0.00 0.00 76 1000.0
20260502041704 55 295 3.0 5.0 0.00 0.00 0.00 77 1000.0
20260502041203 56 299 1.0 2.0 0.00 0.00 0.00 76 1000.0
20260502035703 56 319 2.0 3.0 0.00 0.00 0.00 73 1000.0
20260502035204 56 295 2.0 3.0 0.00 0.00 0.00 71 1000.0
20260502034704 57 333 2.0 7.0 0.00 0.00 0.00 70 1000.0
20260502034203 57 265 2.0 5.0 0.00 0.00 0.00 67 1000.0
20260502033704 57 283 2.0 3.0 0.00 0.00 0.00 65 1000.0
20260502033204 58 306 1.0 2.0 0.00 0.00 0.00 65 1000.0
20260502032204 58 248 2.0 5.0 0.00 0.00 0.00 62 1000.0
20260502031704 58 242 2.0 5.0 0.00 0.00 0.00 60 1000.0
20260502031203 59 257 2.0 3.0 0.00 0.00 0.00 59 1000.0
20260502030704 59 259 2.0 3.0 0.00 0.01 0.00 57 1000.0
20260502030203 59 252 2.0 5.0 0.00 0.02 0.00 56 1000.0
20260502025203 59 253 2.0 3.0 0.00 0.04 0.00 54 1000.0
20260502024703 60 248 2.0 5.0 0.00 0.05 0.00 54 1000.0
20260502024204 60 253 2.0 3.0 0.00 0.06 0.00 54 1000.0
20260502023704 60 250 2.0 3.0 0.00 0.07 0.00 54 1000.0
20260502023204 60 248 2.0 3.0 0.00 0.08 0.00 53 1000.0
20260502022704 60 241 3.0 3.0 0.00 0.08 0.00 52 1000.0
20260502022203 60 243 2.0 3.0 0.00 0.08 0.00 53 1000.0
20260502021204 60 257 2.0 5.0 0.00 0.08 0.00 51 1000.0
20260502020203 60 248 2.0 3.0 0.00 0.08 0.00 51 1000.0
20260502015204 60 236 0.0 2.0 0.00 0.08 0.00 50 1000.0
20260502014704 61 276 1.0 2.0 0.00 0.08 0.00 49 1000.0
20260502014204 61 283 1.0 2.0 0.00 0.08 0.00 48 1000.0
20260502013704 61 241 1.0 2.0 0.00 0.08 0.00 46 1000.0
20260502013204 61 289 1.0 3.0 0.00 0.08 0.00 44 1000.0
20260502012704 61 289 2.0 5.0 0.00 0.08 0.00 44 1000.0
20260502012203 62 282 2.0 5.0 0.00 0.08 0.00 44 1000.0
20260502011204 62 285 2.0 3.0 0.00 0.08 0.00 43 1000.0
20260502010704 62 301 1.0 3.0 0.00 0.08 0.00 43 1000.0
20260502005205 63 312 2.0 7.0 0.00 0.08 0.00 41 1000.0
20260502004704 63 283 1.0 5.0 0.00 0.08 0.00 41 1000.0
20260502004203 63 313 2.0 7.0 0.00 0.08 0.00 41 1000.0
20260502003703 63 306 3.0 6.0 0.00 0.08 0.00 40 1000.0
20260502003204 63 313 5.0 7.0 0.00 0.08 0.00 40 1000.0
20260502002704 64 305 3.0 8.0 0.00 0.08 0.00 39 1000.0
20260502002204 64 345 1.0 5.0 0.00 0.08 0.00 40 1000.0
20260502001703 64 311 4.0 9.0 0.00 0.08 0.00 39 1000.0
20260502001203 65 316 3.0 8.0 0.00 0.08 0.00 38 1000.0
20260502000703 65 318 3.0 7.0 0.00 0.08 0.00 38 1000.0
20260502000204 65 314 6.0 8.0 0.00 0.08 0.00 36 1000.0
20260501235704 65 288 2.0 9.0 0.00 0.08 0.00 37 1000.0
20260501234703 65 297 3.0 7.0 0.00 0.08 0.00 35 1000.0
20260501234204 65 290 2.0 7.0 0.00 0.08 0.00 36 1000.0
20260501233704 65 340 3.0 6.0 0.00 0.08 0.00 36 1000.0
20260501233203 65 323 2.0 6.0 0.00 0.08 0.00 35 1000.0
20260501232703 65 302 3.0 6.0 0.00 0.08 0.00 35 1000.0
20260501232204 65 315 4.0 7.0 0.00 0.08 0.00 34 1000.0
20260501231704 65 17 2.0 7.0 0.00 0.08 0.00 34 1000.0
20260501231203 65 243 3.0 12.0 0.00 0.08 0.00 34 1000.0
20260501230203 66 345 3.0 8.0 0.00 0.08 0.00 32 1000.0
20260501224704 66 227 1.0 9.0 0.00 0.08 0.00 33 1000.0
20260501224203 66 301 5.0 8.0 0.00 0.08 0.00 34 1000.0
20260501223703 65 314 5.0 9.0 0.00 0.08 0.00 33 1000.0
20260501223204 65 287 6.0 12.0 0.00 0.08 0.00 33 1000.0
20260501222704 65 310 7.0 10.0 0.00 0.08 0.00 34 1000.0
20260501222204 65 302 9.0 15.0 0.00 0.08 0.00 32 1000.0
20260501221704 65 322 7.0 10.0 0.00 0.08 0.00 33 1000.0
20260501221203 65 327 5.0 13.0 0.00 0.08 0.00 33 1000.0
20260501220703 65 326 7.0 12.0 0.00 0.08 0.00 32 1000.0
20260501220204 65 308 5.0 8.0 0.00 0.08 0.00 31 1000.0
20260501215704 65 331 3.0 8.0 0.00 0.08 0.00 34 1000.0
20260501215204 64 302 3.0 8.0 0.00 0.08 0.00 33 1000.0
20260501214703 64 319 6.0 9.0 0.00 0.08 0.00 34 1000.0
20260501213704 64 318 5.0 10.0 0.00 0.08 0.00 34 1000.0
20260501212704 65 316 7.0 14.0 0.00 0.08 0.00 31 1000.0
20260501212204 65 313 3.0 9.0 0.00 0.08 0.00 36 1000.0
20260501211704 65 313 4.0 7.0 0.00 0.08 0.00 33 1000.0
20260501211204 65 352 1.0 7.0 0.00 0.08 0.00 35 1000.0
20260501210203 65 64 2.0 7.0 0.00 0.08 0.00 33 1000.0
20260501205703 65 267 2.0 5.0 0.00 0.08 0.00 35 1000.0
20260501204704 64 327 1.0 5.0 0.00 0.08 0.00 35 1000.0
20260501204204 64 4 2.0 5.0 0.00 0.08 0.00 36 1000.0